This is the latest recevied weather packets stored in our database for station/object W1HS. If no packets are shown the sender has not sent any weather packets the latest 10 day(s).
| Time | Temp. | Humidity | Pressure | Rain* | Wind** | Luminosity | Snow |
|---|---|---|---|---|---|---|---|
| 1777905679 | 15° C | 44% | 988.6 hPa | 0 mm | - | 554 W/m² | - |
| 1777905080 | 13.89° C | 47% | 988.6 hPa | 0 mm | - | 357 W/m² | - |
| 1777904480 | 13.89° C | 45% | 988.6 hPa | 0 mm | - | 288 W/m² | - |
| 1777903879 | 13.89° C | 48% | 988.5 hPa | 0 mm | - | 415 W/m² | - |
| 1777903289 | 13.89° C | 49% | 988.3 hPa | 0 mm | - | 840 W/m² | - |
| 1777902679 | 13.33° C | 51% | 988.5 hPa | 0 mm | - | 635 W/m² | - |
| 1777902079 | 12.78° C | 51% | 988.5 hPa | 0 mm | - | 545 W/m² | - |
| 1777901479 | 12.78° C | 52% | 988.6 hPa | 0 mm | - | 554 W/m² | - |
| 1777900882 | 12.22° C | 52% | 988.8 hPa | 0 mm | - | 591 W/m² | - |
| 1777900280 | 12.22° C | 54% | 989 hPa | 0 mm | - | 589 W/m² | - |
| 1777899680 | 11.67° C | 55% | 988.8 hPa | 0 mm | - | 545 W/m² | - |
| 1777899080 | 11.11° C | 54% | 988.9 hPa | 0 mm | - | 503 W/m² | - |
| 1777898479 | 10.56° C | 57% | 989.1 hPa | 0 mm | - | 480 W/m² | - |
| 1777897879 | 10.56° C | 57% | 989.2 hPa | 0 mm | - | 388 W/m² | - |
| 1777897279 | 10° C | 58% | 989.3 hPa | 0 mm | - | 392 W/m² | - |
| 1777896679 | 9.44° C | 59% | 989.3 hPa | 0 mm | - | 390 W/m² | - |
| 1777896080 | 8.89° C | 62% | 989.3 hPa | 0 mm | - | 267 W/m² | - |
| 1777895479 | 8.33° C | 64% | 989.3 hPa | 0 mm | - | 127 W/m² | - |
| 1777894879 | 7.78° C | 65% | 989.4 hPa | 0 mm | - | 102 W/m² | - |
| 1777894281 | 7.78° C | 65% | 989.4 hPa | 0 mm | - | 49 W/m² | - |
| 1777893679 | 7.78° C | 66% | 989.4 hPa | 0 mm | - | 49 W/m² | - |
| 1777893079 | 7.78° C | 65% | 989.4 hPa | 0 mm | - | 69 W/m² | - |
| 1777892479 | 7.78° C | 66% | 989.4 hPa | 0 mm | - | 82 W/m² | - |
| 1777891879 | 7.22° C | 67% | 989.4 hPa | 0 mm | - | 51 W/m² | - |
| 1777891281 | 7.22° C | 68% | 989.3 hPa | 0 mm | - | 58 W/m² | - |
* Rain latest hour (hover to see other rain measurements)
** Current wind speed in m/s (hover to see current wind gust speed)